Weather History for Truckee-Tahoe, CA

Change the Weather History Date:

Friday, July 6, 2012

  Actual Average Record
Temperature  
Mean Temperature 58 °F -  
Max Temperature 80 °F 78 °F 104 °F (2007)
Min Temperature 37 °F 39 °F 26 °F (1955)
Degree Days  
Heating Degree Days 6    
Growing Degree Days 8 (Base 50)    
Moisture  
Dew Point 36 °F    
Average Humidity 55    
Maximum Humidity 100    
Minimum Humidity 15    
Precipitation  
Precipitation 0.00 in - - ()
Sea Level Pressure  
Sea Level Pressure 30.23 in    
Wind  
Wind Speed 3 mph (WSW)    
Max Wind Speed 16 mph    
Max Gust Speed 23 mph    
Visibility 10 miles    
Events Fog    
Averages and records for this station are not official NWS values.
T = Trace of Precipitation, MM = Missing Value Source: NWS Daily Summary

Daily Weather History Graph

Daily Weather History Graph

Search for Another Location

Airport:

Trip Planner

Search our weather history database for the weather conditions in past years. The results will help you decide how hot, cold, wet, or windy it might be!

Date:

Astronomy

Jul. 06, 2012 Rise Set
Actual Time 5:40 AM PDT 8:29 PM PDT
Civil Twilight 5:08 AM PDT 9:01 PM PDT
Nautical Twilight 4:28 AM PDT 9:41 PM PDT
Astronomical Twilight 3:42 AM PDT 10:27 PM PDT
Moon 10:23 PM PDT (7/6) 9:04 AM PDT (7/6)
Length of Visible Light 15h 53m
Length of Day
14h 49m
Waning Gibbous, 88% of the Moon is Illuminated
Jul 6
Waning Gibbous
Jul 10
Last Quarter
Jul 18
New
Jul 26
First Quarter
Aug 1
Full

Hourly Weather History & Observations

Time (PDT) Temp. Windchill Dew Point Humidity Pressure Visibility Wind Dir Wind Speed Gust Speed Precip Events Conditions
12:15 AM 48.2 °F - 39.2 °F 71% 30.21 in 10.0 mi Calm Calm - N/A   Mostly Cloudy
12:35 AM 48.2 °F - 39.2 °F 71% 30.21 in 10.0 mi Calm Calm - N/A   Mostly Cloudy
12:55 AM 48.2 °F - 41.0 °F 76% 30.21 in 10.0 mi Calm Calm - N/A   Partly Cloudy
1:15 AM 50.0 °F - 41.0 °F 71% 30.21 in 10.0 mi Calm Calm - N/A   Clear
1:35 AM 44.6 °F - 39.2 °F 81% 30.21 in 10.0 mi Calm Calm - N/A   Clear
1:55 AM 44.6 °F - 39.2 °F 81% 30.21 in 10.0 mi Calm Calm - N/A   Clear
2:15 AM 44.6 °F - 41.0 °F 87% 30.22 in 10.0 mi Calm Calm - N/A   Clear
2:35 AM 44.6 °F 42.2 °F 39.2 °F 81% 30.22 in 10.0 mi SSE 4.6 mph - N/A   Clear
2:55 AM 42.8 °F - 39.2 °F 87% 30.22 in 10.0 mi Calm Calm - N/A   Clear
3:15 AM 42.8 °F - 41.0 °F 93% 30.22 in 10.0 mi Calm Calm - N/A   Clear
3:35 AM 39.2 °F - 35.6 °F 87% 30.22 in 10.0 mi Calm Calm - N/A   Clear
3:55 AM 41.0 °F - 39.2 °F 93% 30.22 in 10.0 mi Calm Calm - N/A   Clear
4:15 AM 41.0 °F - 39.2 °F 93% 30.22 in 10.0 mi Calm Calm - N/A   Clear
4:35 AM 39.2 °F - 37.4 °F 93% 30.22 in 10.0 mi Calm Calm - N/A   Clear
4:55 AM 37.4 °F - 35.6 °F 93% 30.23 in 10.0 mi Calm Calm - N/A   Clear
5:15 AM 39.2 °F - 37.4 °F 93% 30.23 in 10.0 mi Calm Calm - N/A   Clear
5:35 AM 39.2 °F - 37.4 °F 93% 30.23 in 10.0 mi Calm Calm - N/A   Clear
5:55 AM 37.4 °F - 35.6 °F 93% 30.23 in 0.2 mi Calm Calm - N/A Fog Fog
6:15 AM 37.4 °F - 37.4 °F 100% 30.24 in 5.0 mi Calm Calm - N/A   Clear
6:35 AM 39.2 °F - 35.6 °F 87% 30.24 in 9.0 mi Calm Calm - N/A   Clear
6:45 AM 41.0 °F - 35.6 °F 81% 30.24 in 10.0 mi Calm Calm - N/A   Clear
8:55 AM 59.0 °F - 39.2 °F 48% 30.25 in 10.0 mi Calm Calm - N/A   Clear
9:50 AM 68.0 °F - 35.6 °F 30% 30.24 in 10.0 mi Calm Calm - N/A   Clear
10:50 AM 73.4 °F - 33.8 °F 23% 30.23 in 10.0 mi SW 4.6 mph - N/A   Clear
11:45 AM 75.2 °F - 26.6 °F 17% 30.23 in 10.0 mi WNW 9.2 mph - N/A   Clear
12:45 PM 78.8 °F - 26.6 °F 15% 30.23 in 10.0 mi SW 10.4 mph 20.7 mph N/A   Clear
1:45 PM 80.6 °F - 28.4 °F 15% 30.22 in 10.0 mi SW 12.7 mph 19.6 mph N/A   Partly Cloudy
2:50 PM 80.6 °F - 32.0 °F 17% 30.21 in 10.0 mi WSW 8.1 mph 19.6 mph N/A   Partly Cloudy
3:55 PM 78.8 °F - 35.6 °F 21% 30.21 in 10.0 mi WSW 16.1 mph 23.0 mph N/A   Partly Cloudy
4:55 PM 77.0 °F - 37.4 °F 24% 30.21 in 10.0 mi WSW 15.0 mph 20.7 mph N/A   Partly Cloudy
5:45 PM 77.0 °F - 37.4 °F 24% 30.21 in 10.0 mi SW 13.8 mph - N/A   Partly Cloudy
5:55 PM 77.0 °F - 37.4 °F 24% 30.21 in 10.0 mi SW 12.7 mph 18.4 mph N/A   Clear
6:15 PM 75.2 °F - 33.8 °F 22% 30.22 in 10.0 mi SW 10.4 mph 19.6 mph N/A   Clear
6:35 PM 75.2 °F - 32.0 °F 21% 30.22 in 10.0 mi WSW 9.2 mph - N/A   Clear
6:55 PM 75.2 °F - 32.0 °F 21% 30.22 in 10.0 mi WSW 5.8 mph - N/A   Clear
7:15 PM 73.4 °F - 33.8 °F 23% 30.23 in 10.0 mi West 9.2 mph - N/A   Clear
7:35 PM 73.4 °F - 32.0 °F 22% 30.23 in 10.0 mi West 10.4 mph - N/A   Clear
7:55 PM 71.6 °F - 35.6 °F 27% 30.23 in 10.0 mi West 11.5 mph - N/A   Clear
8:15 PM 68.0 °F - 37.4 °F 33% 30.24 in 10.0 mi West 6.9 mph - N/A   Clear
8:35 PM 66.2 °F - 37.4 °F 35% 30.24 in 10.0 mi WNW 4.6 mph - N/A   Clear
8:55 PM 66.2 °F - 37.4 °F 35% 30.25 in 10.0 mi Calm Calm - N/A   Clear
9:35 PM 57.2 °F - 37.4 °F 48% 30.27 in 10.0 mi SW 4.6 mph - N/A   Clear
9:55 PM 59.0 °F - 35.6 °F 42% 30.27 in 10.0 mi SE 3.5 mph - N/A   Clear
10:15 PM 55.4 °F - 35.6 °F 47% 30.27 in 10.0 mi South 4.6 mph - N/A   Clear
10:35 PM 55.4 °F - 35.6 °F 47% 30.27 in 10.0 mi Calm Calm - N/A   Clear
10:55 PM 53.6 °F - 35.6 °F 51% 30.28 in 10.0 mi WSW 4.6 mph - N/A   Clear
11:15 PM 53.6 °F - 37.4 °F 54% 30.27 in 10.0 mi Calm Calm - N/A   Clear
11:35 PM 51.8 °F - 37.4 °F 58% 30.28 in 10.0 mi Calm Calm - N/A   Clear
11:55 PM 50.0 °F - 37.4 °F 62% 30.28 in 10.0 mi Calm Calm - N/A   Clear